Weather History for K9L2 - October, 2012

Change the Weather History Date:

Wednesday, October 17, 2012

  Actual Average (KEDW) Record (KEDW)
Temperature  
Mean Temperature 70 °F -  
Max Temperature 91 °F 77 °F 89 °F (2011)
Min Temperature 50 °F 43 °F 35 °F (1998)
Cooling Degree Days 5    
Growing Degree Days 20 (Base 50)    
Moisture  
Dew Point 34 °F    
Average Humidity 35    
Maximum Humidity 66    
Minimum Humidity 12    
Precipitation  
Precipitation 0.00 in - - ()
Sea Level Pressure  
Sea Level Pressure 29.89 in    
Wind  
Wind Speed 3 mph (NE)    
Max Wind Speed 12 mph    
Max Gust Speed 16 mph    
Visibility 10 miles    
Events      
Averages and records for this station are not official NWS values.
T = Trace of Precipitation, MM = Missing Value Source: NWS Daily Summary

Daily Weather History Graph

Daily Weather History Graph

Search for Another Location

Airport or City:

Trip Planner

Search our weather history database for the weather conditions in past years. The results will help you decide how hot, cold, wet, or windy it might be!

Date:

Astronomy

Oct. 17, 2012 Rise Set
Actual Time 6:59 AM PDT 6:13 PM PDT
Civil Twilight 6:33 AM PDT 6:38 PM PDT
Nautical Twilight 6:04 AM PDT 7:08 PM PDT
Astronomical Twilight 5:35 AM PDT 7:37 PM PDT
Moon 9:32 AM PDT (10/17) 8:01 PM PDT (10/17)
Length of Visible Light 12h 04m
Length of Day
11h 13m
Waxing Crescent, 8% of the Moon is Illuminated
Oct 17
Waxing Crescent
Oct 21
First Quarter
Oct 29
Full
Nov 6
Last Quarter
Nov 13
New

Hourly Weather History & Observations

Time (PDT) Temp. Dew Point Humidity Pressure Visibility Wind Dir Wind Speed Gust Speed Precip Events Conditions
12:55 AM 60.1 °F 42.1 °F 51% 29.84 in 10.0 mi Calm Calm - N/A   Clear
1:55 AM 55.9 °F 39.0 °F 53% 29.86 in 10.0 mi NE 3.5 mph - N/A   Clear
2:55 AM 54.0 °F 39.0 °F 57% 29.86 in 10.0 mi Calm Calm - N/A   Clear
3:55 AM 52.0 °F 37.9 °F 59% 29.86 in 10.0 mi Calm Calm - N/A   Clear
4:55 AM 51.1 °F 37.9 °F 61% 29.86 in 10.0 mi WNW 5.8 mph - N/A   Clear
5:55 AM 50.0 °F 37.0 °F 61% 29.88 in 10.0 mi Calm Calm - N/A   Clear
6:55 AM 50.0 °F 39.0 °F 66% 29.91 in 10.0 mi WNW 5.8 mph - N/A   Clear
7:55 AM 55.9 °F 39.9 °F 55% 29.91 in 10.0 mi Calm Calm - N/A   Clear
9:55 AM 68.0 °F 44.1 °F 42% 29.94 in 10.0 mi Calm Calm - N/A   Clear
10:55 AM 73.0 °F 45.0 °F 37% 29.93 in 10.0 mi Calm Calm - N/A   Clear
11:55 AM - - N/A% - 10.0 mi SE 4.6 mph - N/A   Clear
12:55 PM 87.1 °F 34.0 °F 15% 29.88 in 10.0 mi North 10.4 mph - N/A   Clear
1:55 PM 89.1 °F 30.9 °F 12% 29.86 in 10.0 mi ENE 11.5 mph - N/A   Clear
2:55 PM 90.0 °F 30.0 °F 12% 29.85 in 10.0 mi NE 9.2 mph - N/A   Clear
3:55 PM 89.1 °F 30.9 °F 12% 29.85 in 10.0 mi East 10.4 mph - N/A   Clear
4:55 PM 89.1 °F 30.0 °F 12% 29.85 in 10.0 mi East 11.5 mph 16.1 mph N/A   Clear
6:55 PM 81.0 °F 28.9 °F 15% 29.89 in 10.0 mi East 8.1 mph - N/A   Clear
7:55 PM 73.9 °F 28.9 °F 19% 29.91 in 10.0 mi ENE 4.6 mph - N/A   Clear
8:55 PM 66.0 °F 27.0 °F 23% 29.93 in 10.0 mi North 4.6 mph - N/A   Clear
9:55 PM 64.9 °F 27.0 °F 24% 29.95 in 10.0 mi Calm Calm - N/A   Clear
10:55 PM 64.0 °F 27.0 °F 25% 29.96 in 10.0 mi NNW 6.9 mph - N/A   Clear
11:55 PM 66.0 °F 28.0 °F 24% 29.96 in 10.0 mi North 8.1 mph - N/A   Clear